QPF
0.00 0.01 0.01 0.01 0.03 0.04 0.02 0.00 0.00 0.00 0.00 0.00 0.00 0.00 0.00 0.00 0.00 0.01 0.00 0.00 0.00 0.00 0.00 0.00 0.00 0.01 0.01 0.00 0.00 0.00 0.00 0.01 0.03 0.01 0.01 0.00 0.00 0.00 0.00 0.00 0.02 0.01 0.01
0.00 0.00 0.02 0.04 0.06 0.08 0.10 0.02 0.00 0.00 0.00 0.01 0.02 0.01 0.01 0.01 0.01 0.00 0.00 0.00 0.00 0.00 0.00 0.00 0.00 0.00 0.00 0.00 0.00 0.00 0.00 0.00 0.01 0.00 0.00 0.00 0.00 0.00 0.00 0.00 0.00 0.00 0.00
0.00 0.00 0.01 0.04 0.07 0.06 0.10 0.15 0.06 0.02 0.00 0.00 0.00 0.00 0.00 0.00 0.00 0.00 0.00 0.00 0.00 0.00 0.00 0.00 0.00 0.00 0.00 0.00 0.00 0.00 0.00 0.00 0.00 0.00 0.00 0.00 0.00 0.01 0.00 0.00 0.00 0.00 0.00
0.00 0.01 0.02 0.03 0.08 0.06 0.06 0.08 0.11 0.10 0.06 0.03 0.00 0.00 0.00 0.00 0.00 0.00 0.00 0.00 0.00 0.00 0.00 0.00 0.00 0.00 0.00 0.00 0.00 0.00 0.00 0.00 0.00 0.00 0.00 0.00 0.00 0.00 0.00 0.00 0.00 0.00 0.00
0.01 0.01 0.02 0.04 0.07 0.08 0.09 0.10 0.11 0.11 0.09 0.10 0.06 0.03 0.01 0.00 0.00 0.00 0.00 0.01 0.01 0.00 0.00 0.00 0.00 0.00 0.00 0.00 0.00 0.00 0.00 0.00 0.00 0.00 0.00 0.00 0.02 0.06 0.03 0.00 0.00 0.00 0.00
0.01 0.01 0.01 0.04 0.06 0.06 0.07 0.06 0.07 0.06 0.05 0.06 0.03 0.03 0.03 0.03 0.03 0.04 0.06 0.04 0.01 0.00 0.00 0.00 0.00 0.00 0.00 0.00 0.00 0.00 0.00 0.00 0.00 0.00 0.00 0.01 0.08 0.08 0.01 0.00 0.00 0.00 0.00
0.00 0.00 0.00 0.04 0.05 0.06 0.06 0.06 0.07 0.07 0.04 0.04 0.03 0.02 0.01 0.01 0.02 0.04 0.03 0.05 0.04 0.02 0.01 0.00 0.00 0.00 0.00 0.00 0.00 0.00 0.00 0.00 0.00 0.00 0.00 0.00 0.03 0.06 0.07 0.00 0.00 0.00 0.01
0.00 0.00 0.00 0.01 0.02 0.04 0.04 0.03 0.02 0.01 0.02 0.01 0.01 0.01 0.01 0.02 0.01 0.02 0.00 0.02 0.04 0.04 0.04 0.03 0.00 0.00 0.00 0.00 0.00 0.00 0.00 0.00 0.00 0.00 0.00 0.00 0.01 0.05 0.07 0.00 0.00 0.01 0.01
0.00 0.00 0.00 0.00 0.00 0.00 0.00 0.00 0.00 0.00 0.00 0.00 0.00 0.00 0.00 0.01 0.04 0.04 0.02 0.00 0.02 0.03 0.03 0.03 0.03 0.01 0.00 0.00 0.00 0.00 0.00 0.00 0.00 0.00 0.00 0.00 0.00 0.01 0.06 0.00 0.00 0.01 0.00
0.00 0.00 0.00 0.00 0.00 0.00 0.00 0.00 0.00 0.00 0.00 0.00 0.00 0.00 0.00 0.00 0.01 0.02 0.03 0.01 0.02 0.02 0.02 0.02 0.03 0.04 0.00 0.00 0.00 0.00 0.00 0.00 0.00 0.00 0.00 0.00 0.00 0.00 0.00 0.00 0.01 0.08 0.08
0.00 0.00 0.00 0.00 0.00 0.00 0.00 0.00 0.00 0.00 0.00 0.00 0.00 0.00 0.00 0.00 0.00 0.00 0.01 0.01 0.01 0.02 0.03 0.02 0.02 0.02 0.01 0.00 0.00 0.00 0.00 0.00 0.00 0.00 0.00 0.00 0.00 0.00 0.00 0.00 0.00 0.01 0.01
0.00 0.00 0.00 0.00 0.00 0.00 0.00 0.00 0.00 0.00 0.00 0.00 0.00 0.00 0.00 0.00 0.00 0.00 0.00 0.00 0.00 0.01 0.03 0.03 0.03 0.01 0.00 0.00 0.00 0.00 0.00 0.00 0.00 0.00 0.00 0.00 0.00 0.00 0.00 0.02 0.01 0.03 0.02
0.00 0.00 0.00 0.00 0.00 0.00 0.00 0.00 0.00 0.00 0.00 0.00 0.00 0.00 0.00 0.00 0.00 0.00 0.00 0.00 0.00 0.00 0.01 0.03 0.03 0.01 0.04 0.07 0.02 0.00 0.00 0.00 0.00 0.00 0.00 0.00 0.00 0.00 0.01 0.03 0.04 0.05 0.04
0.00 0.00 0.00 0.00 0.00 0.00 0.00 0.00 0.00 0.00 0.00 0.00 0.00 0.00 0.00 0.00 0.00 0.00 0.00 0.00 0.00 0.00 0.01 0.02 0.05 0.05 0.06 0.10 0.12 0.04 0.00 0.00 0.00 0.00 0.00 0.00 0.00 0.01 0.00 0.02 0.07 0.12 0.04
0.00 0.00 0.00 0.00 0.00 0.00 0.00 0.00 0.00 0.00 0.00 0.00 0.00 0.00 0.00 0.00 0.00 0.00 0.00 0.00 0.00 0.00 0.00 0.01 0.02 0.04 0.05 0.05 0.09 0.10 0.03 0.00 0.00 0.00 0.00 0.00 0.00 0.00 0.04 0.02 0.00 0.03 0.01
0.00 0.00 0.00 0.00 0.00 0.00 0.00 0.00 0.00 0.00 0.00 0.00 0.00 0.00 0.00 0.00 0.00 0.00 0.00 0.00 0.00 0.00 0.00 0.00 0.01 0.02 0.04 0.06 0.04 0.06 0.07 0.04 0.01 0.00 0.00 0.00 0.00 0.00 0.00 0.03 0.03 0.00 0.00
0.00 0.00 0.00 0.00 0.00 0.00 0.00 0.00 0.00 0.00 0.00 0.00 0.00 0.00 0.00 0.00 0.00 0.00 0.00 0.00 0.00 0.00 0.00 0.00 0.00 0.01 0.02 0.05 0.05 0.07 0.08 0.08 0.09 0.04 0.01 0.00 0.00 0.00 0.00 0.00 0.03 0.04 0.03
0.00 0.00 0.00 0.00 0.00 0.00 0.00 0.00 0.00 0.00 0.00 0.00 0.00 0.00 0.00 0.00 0.00 0.00 0.00 0.00 0.00 0.00 0.00 0.00 0.00 0.00 0.00 0.00 0.01 0.01 0.02 0.04 0.06 0.08 0.08 0.01 0.00 0.00 0.00 0.00 0.00 0.04 0.04
0.00 0.00 0.00 0.00 0.00 0.00 0.00 0.00 0.00 0.00 0.00 0.00 0.00 0.00 0.00 0.00 0.00 0.00 0.00 0.00 0.00 0.00 0.00 0.00 0.00 0.00 0.00 0.00 0.00 0.00 0.00 0.00 0.00 0.02 0.04 0.05 0.03 0.00 0.00 0.00 0.00 0.00 0.00
0.00 0.00 0.00 0.00 0.00 0.00 0.00 0.00 0.00 0.00 0.00 0.00 0.00 0.00 0.00 0.00 0.00 0.00 0.00 0.00 0.00 0.00 0.00 0.00 0.00 0.00 0.00 0.00 0.00 0.00 0.00 0.00 0.00 0.00 0.00 0.03 0.04 0.03 0.00 0.00 0.00 0.00 0.00
0.00 0.00 0.00 0.00 0.00 0.00 0.00 0.00 0.00 0.00 0.00 0.00 0.00 0.00 0.00 0.00 0.00 0.00 0.00 0.00 0.00 0.00 0.00 0.00 0.00 0.00 0.00 0.00 0.00 0.00 0.00 0.00 0.00 0.00 0.00 0.00 0.01 0.02 0.02 0.00 0.00 0.00 0.00
0.00 0.00 0.00 0.00 0.00 0.00 0.00 0.00 0.00 0.00 0.00 0.00 0.00 0.00 0.00 0.00 0.00 0.00 0.00 0.00 0.00 0.00 0.00 0.00 0.00 0.00 0.00 0.00 0.00 0.00 0.00 0.00 0.00 0.00 0.00 0.00 0.00 0.01 0.02 0.03 0.02 0.00 0.00
0.00 0.00 0.00 0.00 0.00 0.00 0.00 0.00 0.00 0.00 0.00 0.00 0.00 0.00 0.00 0.00 0.00 0.00 0.00 0.00 0.00 0.00 0.00 0.00 0.00 0.00 0.01 0.00 0.01 0.01 0.00 0.00 0.00 0.00 0.00 0.00 0.00 0.00 0.00 0.01 0.01 0.01 0.00
0.00 0.00 0.00 0.00 0.00 0.00 0.00 0.00 0.00 0.00 0.00 0.00 0.00 0.00 0.00 0.00 0.00 0.00 0.00 0.00 0.00 0.00 0.00 0.00 0.00 0.00 0.01 0.01 0.01 0.01 0.01 0.00 0.00 0.00 0.00 0.00 0.00 0.00 0.00 0.00 0.00 0.00 0.00
0.00 0.00 0.00 0.00 0.00 0.00 0.00 0.00 0.00 0.00 0.00 0.00 0.00 0.00 0.00 0.00 0.00 0.00 0.00 0.00 0.00 0.00 0.00 0.00 0.00 0.00 0.00 0.01 0.01 0.01 0.01 0.01 0.01 0.01 0.00 0.00 0.00 0.00 0.00 0.00 0.00 0.00 0.00
0.00 0.00 0.00 0.00 0.00 0.00 0.00 0.00 0.00 0.00 0.00 0.00 0.00 0.00 0.00 0.00 0.00 0.00 0.00 0.00 0.00 0.00 0.00 0.00 0.00 0.00 0.00 0.00 0.01 0.00 0.01 0.01 0.01 0.00 0.00 0.00 0.00 0.00 0.00 0.00 0.00 0.00 0.00
MSLP
1014.42 1015.24 1015.83 1015.89 1015.99 1015.93 1016.11 1016.18 1016.27 1016.28 1016.23 1016.29 1016.40 1016.46 1016.57 1016.65 1016.72 1016.75 1016.75 1016.78 1016.78 1016.75 1016.70 1016.69 1016.71 1016.73 1016.84 1016.94 1016.96 1017.07 1017.10 1016.96 1016.96 1016.99 1016.89 1016.93 1016.97 1016.99 1016.92 1016.92 1016.72 1016.97 1017.27
1014.20 1015.36 1016.09 1016.24 1016.33 1016.36 1016.56 1016.64 1016.67 1016.69 1016.67 1016.67 1016.75 1016.83 1016.88 1016.95 1016.98 1017.01 1017.07 1017.10 1017.08 1017.06 1017.09 1017.06 1017.09 1017.11 1017.23 1017.37 1017.47 1017.45 1017.54 1017.54 1017.42 1017.40 1017.37 1017.37 1017.36 1017.34 1017.32 1017.10 1017.08 1017.47 1017.52
1014.62 1015.00 1015.98 1016.61 1016.72 1016.74 1016.77 1016.95 1017.01 1017.07 1017.06 1017.07 1017.12 1017.18 1017.23 1017.25 1017.29 1017.32 1017.30 1017.33 1017.30 1017.30 1017.36 1017.42 1017.49 1017.52 1017.60 1017.69 1017.77 1017.88 1017.92 1017.93 1017.80 1017.63 1017.50 1017.06 1017.44 1017.67 1017.64 1017.60 1017.67 1017.74 1017.85
1015.32 1015.92 1016.53 1016.95 1017.04 1017.02 1017.10 1017.23 1017.25 1017.32 1017.36 1017.34 1017.37 1017.39 1017.48 1017.45 1017.43 1017.50 1017.53 1017.56 1017.52 1017.53 1017.62 1017.69 1017.82 1017.90 1017.95 1017.98 1017.99 1018.10 1018.15 1018.14 1018.06 1017.78 1017.20 1016.67 1017.25 1018.00 1017.96 1017.95 1017.98 1018.07 1018.13
1015.91 1016.32 1017.08 1017.31 1017.34 1017.37 1017.36 1017.44 1017.48 1017.56 1017.56 1017.59 1017.65 1017.64 1017.66 1017.69 1017.67 1017.74 1017.74 1017.85 1017.81 1017.78 1017.91 1017.97 1018.06 1018.12 1018.22 1018.23 1018.26 1018.33 1018.40 1018.36 1018.14 1017.80 1017.29 1017.53 1017.46 1017.93 1018.07 1018.16 1018.30 1018.33 1018.31
1016.17 1016.36 1017.51 1017.69 1017.80 1017.74 1017.78 1017.76 1017.82 1017.66 1017.74 1017.86 1017.83 1017.88 1017.87 1017.95 1017.95 1018.06 1018.09 1018.12 1018.09 1018.08 1018.14 1018.22 1018.31 1018.34 1018.31 1018.40 1018.42 1018.44 1018.53 1018.51 1018.30 1017.60 1017.68 1018.05 1017.97 1018.06 1018.24 1018.40 1018.43 1018.57 1018.61
1016.37 1016.71 1017.44 1018.05 1018.18 1018.11 1018.05 1018.08 1018.02 1018.08 1018.02 1017.92 1018.00 1017.98 1018.05 1018.09 1018.08 1018.14 1018.19 1018.26 1018.25 1018.31 1018.36 1018.46 1018.49 1018.52 1018.51 1018.52 1018.52 1018.58 1018.65 1018.61 1018.17 1017.68 1017.81 1018.00 1018.43 1018.42 1018.38 1018.61 1018.69 1018.71 1018.83
1017.90 1017.96 1017.93 1018.09 1018.34 1018.37 1018.47 1018.53 1018.46 1018.36 1018.28 1018.24 1018.16 1018.10 1018.20 1018.22 1018.25 1018.25 1018.31 1018.35 1018.41 1018.44 1018.49 1018.54 1018.57 1018.62 1018.62 1018.67 1018.64 1018.70 1018.74 1018.68 1018.17 1017.64 1017.88 1018.06 1018.59 1018.77 1018.70 1018.78 1018.87 1018.86 1019.02
1019.32 1019.29 1019.17 1018.76 1018.48 1018.41 1018.59 1018.75 1018.78 1018.72 1018.66 1018.55 1018.46 1018.40 1018.38 1018.27 1018.22 1018.23 1018.33 1018.34 1018.38 1018.46 1018.50 1018.52 1018.64 1018.65 1018.69 1018.72 1018.73 1018.79 1018.86 1018.77 1018.31 1017.61 1017.84 1017.89 1018.53 1018.80 1018.79 1018.84 1018.93 1019.00 1019.17
1020.36 1020.41 1020.31 1019.93 1019.48 1019.06 1018.71 1018.80 1018.87 1018.77 1018.69 1018.55 1018.45 1018.48 1018.34 1018.12 1017.97 1018.00 1018.08 1018.22 1018.39 1018.40 1018.47 1018.49 1018.57 1018.66 1018.68 1018.74 1018.77 1018.83 1018.91 1018.86 1018.32 1017.68 1017.88 1018.09 1018.59 1018.73 1018.71 1018.75 1018.85 1019.05 1019.21
1021.20 1021.31 1021.24 1020.86 1020.39 1019.76 1019.00 1018.61 1018.45 1018.66 1018.58 1018.39 1018.25 1018.20 1017.93 1017.43 1017.33 1017.44 1017.80 1018.14 1018.35 1018.40 1018.40 1018.38 1018.41 1018.52 1018.61 1018.70 1018.78 1018.86 1018.97 1018.47 1017.64 1017.58 1017.55 1018.23 1018.55 1018.59 1018.57 1018.59 1018.70 1018.89 1019.05
1022.33 1022.23 1022.10 1021.73 1021.22 1020.58 1019.55 1019.09 1018.59 1018.26 1018.17 1017.98 1017.80 1017.83 1017.62 1017.55 1017.53 1017.82 1017.86 1018.00 1018.03 1018.03 1018.17 1018.18 1018.17 1018.36 1018.52 1017.97 1018.04 1018.62 1018.57 1018.02 1017.52 1017.52 1017.54 1018.13 1018.50 1018.51 1018.44 1018.10 1018.55 1018.78 1019.00
1023.88 1023.56 1023.20 1022.73 1022.06 1021.35 1020.68 1019.80 1018.92 1018.68 1018.43 1018.34 1018.14 1018.19 1017.99 1017.77 1017.51 1017.43 1017.34 1017.31 1017.22 1017.58 1017.24 1017.64 1017.76 1017.87 1017.66 1017.71 1017.67 1017.33 1017.64 1017.62 1017.52 1017.56 1017.63 1018.06 1018.41 1018.46 1018.41 1018.34 1018.52 1018.76 1019.07
1024.64 1024.51 1024.07 1023.61 1022.89 1022.20 1021.42 1020.66 1019.92 1019.42 1019.31 1018.84 1018.89 1018.69 1018.51 1018.08 1017.77 1017.64 1017.44 1017.41 1017.26 1017.13 1016.82 1017.07 1017.46 1017.55 1017.51 1017.55 1017.60 1017.51 1017.07 1017.37 1017.68 1017.64 1017.61 1018.00 1018.28 1018.40 1018.31 1018.33 1018.52 1018.95 1019.12
1025.47 1025.36 1024.96 1024.41 1023.74 1023.05 1022.21 1021.79 1020.93 1020.39 1019.98 1019.63 1019.29 1019.29 1019.17 1018.74 1018.44 1018.10 1017.80 1017.57 1017.37 1017.25 1017.04 1016.79 1016.84 1017.13 1017.31 1017.26 1017.30 1017.38 1017.30 1016.88 1017.33 1017.61 1017.87 1018.20 1018.23 1018.29 1018.22 1018.26 1018.56 1018.94 1019.00
1026.45 1026.09 1025.73 1025.21 1024.73 1024.00 1023.32 1022.67 1022.38 1022.00 1021.28 1020.35 1020.03 1019.93 1019.86 1019.55 1019.20 1018.83 1018.36 1017.81 1017.74 1017.42 1017.29 1017.04 1016.78 1016.83 1017.03 1017.23 1017.17 1017.01 1017.11 1016.98 1016.81 1016.97 1017.39 1017.70 1018.00 1018.19 1018.22 1018.21 1018.27 1018.52 1018.73
1027.37 1027.06 1026.53 1026.02 1025.59 1024.76 1024.26 1023.44 1023.05 1022.59 1022.52 1022.12 1021.62 1021.29 1020.97 1020.45 1020.04 1019.53 1018.86 1018.41 1017.90 1017.75 1017.71 1017.29 1017.22 1017.26 1017.17 1016.97 1017.12 1017.09 1017.07 1017.06 1017.04 1016.99 1016.76 1017.06 1017.47 1017.88 1018.05 1018.14 1018.09 1018.04 1018.11
1027.92 1027.63 1027.41 1027.00 1026.44 1025.73 1025.02 1024.33 1023.77 1023.31 1022.77 1022.54 1022.35 1022.04 1021.87 1021.38 1021.12 1020.44 1019.38 1018.90 1018.53 1018.27 1017.86 1017.60 1017.24 1017.60 1017.49 1017.50 1017.35 1017.37 1017.40 1017.12 1016.95 1016.98 1017.11 1016.86 1016.91 1017.15 1017.69 1017.76 1017.87 1018.04 1018.20
1028.56 1028.29 1027.92 1027.60 1027.26 1026.66 1026.03 1025.37 1024.77 1024.27 1023.88 1023.38 1023.19 1023.02 1022.75 1022.15 1021.70 1021.11 1020.53 1019.63 1019.09 1018.60 1018.12 1017.77 1017.51 1017.33 1017.10 1017.01 1016.95 1017.01 1017.06 1017.05 1017.01 1016.91 1016.82 1016.73 1016.82 1016.67 1016.76 1017.09 1017.51 1017.76 1017.95
1029.14 1028.90 1028.76 1028.48 1028.14 1027.59 1026.98 1026.35 1025.83 1025.22 1024.42 1024.27 1024.24 1023.91 1023.50 1023.26 1022.62 1021.92 1021.17 1020.76 1020.03 1019.11 1018.46 1018.02 1017.73 1017.43 1017.16 1016.89 1016.72 1016.45 1016.34 1016.32 1016.33 1016.29 1016.44 1016.35 1016.26 1016.35 1016.35 1016.54 1016.94 1017.26 1017.61
1029.55 1029.50 1029.36 1029.11 1028.92 1028.38 1027.95 1027.44 1026.80 1026.16 1025.44 1025.08 1024.79 1024.59 1024.12 1023.88 1023.48 1022.96 1022.02 1021.25 1020.65 1020.16 1019.66 1019.19 1018.51 1017.77 1017.35 1017.06 1016.68 1016.73 1016.37 1015.93 1015.65 1015.63 1015.56 1015.75 1015.58 1015.58 1015.71 1015.87 1016.18 1016.37 1016.64
1029.98 1030.09 1029.95 1029.79 1029.48 1029.20 1028.92 1028.52 1028.07 1027.19 1026.39 1025.72 1025.25 1024.97 1024.54 1024.32 1023.93 1023.57 1023.36 1022.51 1021.43 1020.73 1020.25 1019.50 1019.03 1018.47 1017.91 1017.49 1017.03 1016.65 1015.95 1015.29 1014.77 1014.64 1014.85 1014.96 1015.21 1014.99 1015.07 1015.27 1015.45 1015.64 1015.83
1030.42 1030.46 1030.33 1030.17 1030.04 1029.78 1029.58 1028.98 1028.37 1027.66 1026.89 1026.22 1025.95 1025.27 1024.87 1024.53 1024.09 1023.70 1023.58 1023.22 1022.58 1021.65 1020.61 1020.18 1019.32 1018.53 1018.05 1017.66 1017.31 1017.08 1016.06 1015.15 1014.64 1014.10 1014.21 1014.38 1014.67 1014.65 1014.43 1014.69 1014.92 1015.01 1015.13
1030.70 1030.79 1030.68 1030.52 1030.34 1030.02 1029.83 1029.33 1028.82 1028.26 1027.50 1026.98 1026.45 1025.71 1025.06 1024.54 1024.05 1023.72 1023.46 1023.07 1022.64 1022.23 1021.48 1020.40 1019.68 1019.07 1018.21 1017.60 1017.24 1016.91 1016.55 1016.20 1015.64 1014.66 1014.21 1014.39 1014.37 1014.23 1014.26 1014.20 1014.34 1014.49 1014.60
1030.90 1030.86 1030.74 1030.60 1030.45 1030.35 1030.01 1029.70 1029.22 1028.56 1028.00 1027.30 1026.68 1025.98 1025.37 1024.58 1024.08 1023.72 1023.35 1022.95 1022.51 1022.00 1021.50 1021.01 1020.22 1019.38 1018.82 1017.87 1017.02 1016.62 1016.35 1016.16 1015.94 1015.57 1014.64 1014.35 1014.11 1014.09 1014.28 1014.32 1014.28 1014.47 1014.37
1030.99 1031.01 1030.87 1030.69 1030.54 1030.35 1030.11 1029.73 1029.40 1028.82 1028.10 1027.49 1026.86 1026.16 1025.48 1024.78 1024.25 1023.80 1023.24 1022.83 1022.43 1022.01 1021.43 1020.83 1020.30 1019.86 1019.06 1018.27 1017.51 1016.38 1015.82 1015.46 1015.21 1015.18 1014.76 1014.42 1014.04 1013.58 1013.31 1013.49 1013.60 1013.65 1013.59
Thickness
5717 5712 5708 5707 5707 5707 5705 5705 5704 5705 5706 5706 5706 5706 5705 5705 5705 5705 5705 5705 5705 5706 5707 5707 5706 5706 5706 5705 5705 5705 5708 5710 5711 5712 5714 5715 5715 5717 5718 5719 5720 5719 5717
5718 5709 5705 5704 5704 5703 5702 5700 5701 5701 5701 5702 5701 5701 5701 5702 5701 5702 5702 5702 5702 5703 5703 5704 5704 5704 5703 5703 5703 5704 5704 5706 5708 5710 5711 5712 5713 5714 5715 5717 5718 5716 5716
5714 5709 5702 5699 5698 5698 5698 5697 5697 5696 5697 5697 5697 5697 5697 5698 5698 5698 5699 5699 5700 5700 5701 5701 5700 5700 5700 5701 5700 5701 5701 5703 5705 5708 5711 5714 5712 5712 5713 5714 5714 5714 5714
5705 5701 5696 5694 5693 5695 5694 5693 5694 5693 5694 5694 5694 5694 5694 5695 5696 5696 5697 5696 5697 5698 5697 5698 5698 5697 5697 5698 5699 5699 5699 5701 5703 5706 5712 5716 5713 5709 5710 5711 5712 5712 5712
5700 5697 5691 5690 5690 5690 5690 5689 5689 5690 5690 5690 5690 5691 5691 5692 5692 5693 5694 5693 5694 5695 5694 5694 5694 5695 5695 5695 5696 5697 5697 5698 5701 5705 5709 5709 5711 5709 5709 5709 5709 5710 5711
5696 5695 5687 5686 5685 5685 5686 5686 5685 5688 5688 5687 5687 5687 5688 5687 5688 5687 5688 5689 5690 5690 5690 5690 5690 5691 5692 5692 5693 5695 5695 5696 5699 5704 5704 5704 5706 5706 5707 5706 5707 5707 5708
5695 5692 5687 5683 5683 5683 5684 5683 5684 5684 5684 5686 5686 5686 5685 5685 5685 5685 5685 5685 5687 5686 5686 5686 5686 5687 5688 5689 5690 5691 5692 5694 5698 5701 5701 5701 5700 5702 5702 5703 5703 5705 5704
5681 5680 5681 5681 5680 5679 5679 5679 5679 5679 5679 5679 5680 5682 5682 5682 5682 5683 5682 5682 5682 5682 5682 5682 5683 5683 5685 5685 5686 5688 5689 5691 5695 5700 5699 5699 5696 5697 5698 5699 5700 5701 5701
5669 5669 5669 5673 5674 5675 5674 5673 5673 5674 5674 5676 5677 5678 5677 5678 5679 5679 5679 5680 5680 5679 5679 5679 5679 5679 5680 5681 5683 5684 5685 5687 5692 5697 5697 5698 5695 5693 5694 5695 5696 5697 5697
5660 5659 5659 5661 5664 5667 5669 5669 5669 5670 5671 5672 5673 5673 5675 5677 5678 5678 5677 5676 5675 5676 5676 5676 5676 5675 5677 5677 5678 5680 5681 5683 5688 5692 5693 5693 5691 5691 5692 5693 5694 5693 5693
5652 5650 5650 5652 5655 5659 5664 5666 5668 5666 5667 5669 5670 5670 5672 5675 5676 5676 5676 5674 5673 5672 5671 5672 5673 5673 5673 5674 5675 5676 5676 5680 5687 5689 5691 5689 5688 5688 5690 5691 5692 5691 5691
5640 5641 5641 5642 5645 5649 5655 5658 5662 5664 5664 5666 5667 5667 5668 5669 5670 5668 5669 5669 5669 5670 5670 5670 5670 5669 5668 5673 5674 5672 5673 5678 5683 5684 5686 5685 5683 5684 5687 5691 5689 5689 5688
5625 5627 5629 5632 5636 5640 5644 5649 5655 5656 5658 5658 5659 5658 5659 5661 5664 5665 5666 5667 5668 5668 5670 5669 5668 5666 5668 5669 5671 5674 5673 5675 5677 5679 5680 5680 5678 5679 5681 5684 5685 5685 5683
5615 5615 5618 5621 5625 5629 5634 5638 5642 5645 5645 5649 5648 5649 5650 5653 5655 5656 5658 5659 5661 5663 5666 5666 5664 5665 5665 5665 5665 5667 5671 5670 5670 5672 5675 5675 5674 5674 5677 5680 5680 5676 5675
5603 5604 5606 5609 5613 5617 5622 5624 5629 5632 5634 5636 5638 5638 5639 5642 5643 5646 5648 5650 5653 5654 5657 5660 5661 5660 5661 5662 5661 5661 5663 5668 5666 5666 5666 5667 5668 5670 5672 5673 5673 5668 5670
5590 5591 5593 5596 5599 5602 5606 5610 5612 5614 5619 5624 5626 5626 5626 5628 5631 5633 5636 5640 5641 5645 5647 5650 5653 5654 5654 5655 5657 5658 5659 5661 5664 5664 5663 5662 5662 5665 5666 5668 5669 5668 5667
5576 5577 5580 5583 5585 5590 5592 5596 5598 5600 5600 5604 5607 5610 5611 5614 5616 5620 5624 5628 5632 5634 5635 5639 5640 5642 5644 5647 5649 5651 5652 5653 5655 5657 5660 5659 5659 5659 5660 5662 5663 5665 5666
5564 5564 5564 5566 5569 5573 5577 5580 5583 5585 5588 5590 5591 5594 5595 5598 5600 5605 5613 5617 5620 5622 5625 5628 5634 5631 5633 5634 5637 5639 5641 5645 5648 5649 5650 5653 5655 5655 5655 5657 5658 5657 5658
5550 5551 5551 5552 5552 5555 5558 5561 5564 5567 5569 5573 5574 5576 5578 5583 5586 5590 5594 5602 5607 5611 5615 5619 5622 5625 5628 5631 5633 5634 5636 5638 5639 5642 5644 5646 5647 5650 5652 5653 5652 5652 5652
5534 5535 5534 5534 5535 5537 5539 5542 5544 5548 5553 5554 5555 5557 5560 5562 5568 5573 5579 5583 5589 5597 5604 5608 5612 5617 5620 5622 5625 5631 5634 5635 5636 5639 5639 5641 5643 5645 5647 5647 5647 5647 5647
5519 5517 5516 5516 5516 5519 5519 5521 5524 5527 5532 5534 5536 5538 5542 5544 5547 5552 5560 5567 5572 5577 5583 5588 5595 5602 5608 5612 5616 5616 5621 5630 5635 5636 5637 5637 5640 5642 5643 5644 5644 5644 5645
5504 5500 5499 5497 5497 5497 5498 5499 5499 5504 5508 5513 5517 5519 5522 5525 5529 5532 5535 5543 5552 5559 5564 5572 5577 5584 5591 5597 5601 5606 5611 5621 5630 5634 5635 5637 5636 5639 5640 5640 5640 5641 5641
5484 5482 5481 5479 5478 5477 5477 5479 5481 5484 5488 5492 5493 5499 5502 5505 5509 5514 5516 5521 5527 5536 5548 5552 5561 5568 5575 5582 5587 5590 5599 5607 5616 5627 5628 5630 5630 5633 5638 5637 5635 5637 5638
5467 5463 5461 5460 5459 5459 5458 5460 5461 5462 5466 5468 5472 5477 5481 5485 5490 5493 5497 5502 5508 5514 5522 5533 5541 5549 5559 5566 5571 5578 5584 5590 5593 5604 5616 5617 5622 5625 5628 5631 5632 5632 5634
5450 5447 5445 5442 5440 5437 5438 5438 5439 5442 5444 5448 5450 5454 5459 5465 5468 5471 5475 5480 5487 5494 5501 5507 5517 5528 5536 5547 5557 5562 5569 5574 5581 5585 5594 5602 5609 5614 5616 5618 5622 5623 5626
5432 5428 5427 5425 5422 5420 5418 5419 5418 5420 5425 5428 5430 5433 5437 5443 5448 5450 5453 5457 5463 5470 5478 5487 5495 5503 5513 5524 5535 5550 5557 5562 5568 5572 5580 5588 5593 5603 5611 5614 5617 5619 5622